Weather History for Audubon, IA

Change the Weather History Date:

Friday, October 7, 2011

  Actual Average Record
Temperature  
Mean Temperature 74 °F -  
Max Temperature 82 °F 67 °F 84 °F (1949)
Min Temperature 66 °F 41 °F 17 °F (2012)
Cooling Degree Days 9    
Growing Degree Days 24 (Base 50)    
Moisture  
Dew Point 56 °F    
Average Humidity 52    
Maximum Humidity 65    
Minimum Humidity 42    
Precipitation  
Precipitation 0.00 in - - ()
Sea Level Pressure  
Sea Level Pressure 29.98 in    
Wind  
Wind Speed 15 mph (South)    
Max Wind Speed 23 mph    
Max Gust Speed 36 mph    
Visibility 9 miles    
Events      
Averages and records for this station are not official NWS values.
T = Trace of Precipitation, MM = Missing Value Source: NWS Daily Summary

Daily Weather History Graph

Daily Weather History Graph

Search for Another Location

Airport:

Trip Planner

Search our weather history database for the weather conditions in past years. The results will help you decide how hot, cold, wet, or windy it might be!

Date:

Astronomy

Oct. 07, 2011 Rise Set
Actual Time 7:22 AM CDT 6:51 PM CDT
Civil Twilight 6:54 AM CDT 7:19 PM CDT
Nautical Twilight 6:22 AM CDT 7:51 PM CDT
Astronomical Twilight 5:50 AM CDT 8:23 PM CDT
Moon 4:37 PM CDT (10/7) 3:09 AM CDT (10/7)
Length of Visible Light 12h 24m
Length of Day
11h 28m
Waxing Gibbous, 83% of the Moon is Illuminated
Oct 7
Waxing Gibbous
Oct 11
Full
Oct 19
Last Quarter
Oct 26
New
Nov 2
First Quarter

Hourly Weather History & Observations

Time (CDT) Temp. Heat Index Dew Point Humidity Pressure Visibility Wind Dir Wind Speed Gust Speed Precip Events Conditions
12:15 AM 66.2 °F - 46.4 °F 49% 29.95 in 10.0 mi SSE 11.5 mph 17.3 mph N/A   Clear
12:35 AM 66.2 °F - 46.4 °F 49% 29.95 in 10.0 mi South 11.5 mph 20.7 mph N/A   Clear
12:55 AM 66.2 °F - 48.2 °F 52% 29.95 in 10.0 mi SSE 12.7 mph 16.1 mph N/A   Clear
1:35 AM 66.2 °F - 48.2 °F 52% 29.97 in 10.0 mi SSE 11.5 mph - N/A   Clear
1:55 AM 66.2 °F - 48.2 °F 52% 29.98 in 10.0 mi South 9.2 mph 16.1 mph N/A   Clear
2:15 AM 66.2 °F - 50.0 °F 56% 29.98 in 10.0 mi SSE 10.4 mph - N/A   Clear
7:15 AM 66.2 °F - 51.8 °F 60% 29.98 in 10.0 mi SSE 12.7 mph 19.6 mph N/A   Mostly Cloudy
7:35 AM 66.2 °F - 51.8 °F 60% 29.99 in 10.0 mi South 12.7 mph - N/A   Overcast
7:55 AM 66.2 °F - 51.8 °F 60% 29.99 in 7.0 mi South 18.4 mph 24.2 mph N/A   Mostly Cloudy
8:15 AM 66.2 °F - 51.8 °F 60% 29.99 in 10.0 mi South 13.8 mph 23.0 mph N/A   Clear
8:35 AM 68.0 °F - 51.8 °F 56% 29.99 in 10.0 mi South 15.0 mph 26.5 mph N/A   Clear
8:55 AM 69.8 °F - 51.8 °F 53% 29.99 in 7.0 mi South 17.3 mph 24.2 mph N/A   Clear
9:35 AM 71.6 °F - 53.6 °F 53% 30.00 in 10.0 mi South 18.4 mph 32.2 mph N/A   Scattered Clouds
9:55 AM 73.4 °F - 53.6 °F 50% 30.00 in 10.0 mi South 16.1 mph 27.6 mph N/A   Scattered Clouds
10:15 AM 73.4 °F - 55.4 °F 53% 30.00 in 10.0 mi South 18.4 mph 27.6 mph N/A   Clear
10:35 AM 75.2 °F - 55.4 °F 50% 30.00 in 10.0 mi South 18.4 mph 28.8 mph N/A   Scattered Clouds
10:55 AM 75.2 °F - 55.4 °F 50% 30.00 in 7.0 mi South 20.7 mph 32.2 mph N/A   Scattered Clouds
11:15 AM 73.4 °F - 55.4 °F 53% 30.00 in 10.0 mi South 17.3 mph 25.3 mph N/A   Scattered Clouds
11:55 AM 77.0 °F - 55.4 °F 47% 29.99 in 7.0 mi South 17.3 mph 32.2 mph N/A   Clear
12:15 PM 78.8 °F - 57.2 °F 47% 29.99 in 10.0 mi South 17.3 mph 26.5 mph N/A   Scattered Clouds
12:35 PM 78.8 °F - 57.2 °F 47% 29.99 in 7.0 mi South 20.7 mph 34.5 mph N/A   Scattered Clouds
12:55 PM 80.6 °F 80.8 °F 57.2 °F 45% 29.98 in 7.0 mi South 19.6 mph 33.4 mph N/A   Clear
1:15 PM 80.6 °F 80.8 °F 57.2 °F 45% 29.98 in 10.0 mi South 18.4 mph 32.2 mph N/A   Clear
1:35 PM 80.6 °F 80.8 °F 57.2 °F 45% 29.97 in 4.0 mi South 21.9 mph 31.1 mph N/A   Clear
1:55 PM 80.6 °F 80.8 °F 57.2 °F 45% 29.96 in 5.0 mi South 18.4 mph 31.1 mph N/A   Clear
2:15 PM 82.4 °F 82.0 °F 57.2 °F 42% 29.96 in 5.0 mi South 23.0 mph 35.7 mph N/A   Clear
2:35 PM 82.4 °F 82.5 °F 59.0 °F 45% 29.95 in 10.0 mi South 19.6 mph 31.1 mph N/A   Clear
3:15 PM 82.4 °F 82.5 °F 59.0 °F 45% 29.95 in 7.0 mi South 19.6 mph 28.8 mph N/A   Clear
3:55 PM 82.4 °F 82.5 °F 59.0 °F 45% 29.95 in 7.0 mi South 21.9 mph 32.2 mph N/A   Scattered Clouds
4:15 PM 80.6 °F 80.8 °F 57.2 °F 45% 29.95 in 10.0 mi South 19.6 mph 29.9 mph N/A   Scattered Clouds
4:35 PM 80.6 °F 81.1 °F 59.0 °F 48% 29.95 in 10.0 mi South 23.0 mph 34.5 mph N/A   Mostly Cloudy
4:55 PM 80.6 °F 81.1 °F 59.0 °F 48% 29.95 in 10.0 mi South 18.4 mph 28.8 mph N/A   Overcast
5:15 PM 80.6 °F 81.1 °F 59.0 °F 48% 29.95 in 10.0 mi South 11.5 mph 25.3 mph N/A   Mostly Cloudy
5:35 PM 80.6 °F 81.1 °F 59.0 °F 48% 29.96 in 10.0 mi South 18.4 mph 29.9 mph N/A   Overcast
5:55 PM 80.6 °F 81.1 °F 59.0 °F 48% 29.95 in 10.0 mi South 17.3 mph 23.0 mph N/A   Overcast
6:15 PM 78.8 °F - 59.0 °F 51% 29.95 in 10.0 mi South 15.0 mph 26.5 mph N/A   Overcast
6:35 PM 78.8 °F - 59.0 °F 51% 29.95 in 10.0 mi South 12.7 mph 24.2 mph N/A   Overcast
6:55 PM 78.8 °F - 60.8 °F 54% 29.96 in 10.0 mi South 13.8 mph 21.9 mph N/A   Overcast
7:15 PM 78.8 °F - 60.8 °F 54% 29.97 in 10.0 mi South 15.0 mph 26.5 mph N/A   Overcast
7:35 PM 77.0 °F - 60.8 °F 57% 29.98 in 10.0 mi South 11.5 mph 17.3 mph N/A   Overcast
7:55 PM 75.2 °F - 60.8 °F 61% 29.99 in 10.0 mi South 10.4 mph - N/A   Mostly Cloudy
8:15 PM 75.2 °F - 60.8 °F 61% 29.99 in 10.0 mi South 11.5 mph 16.1 mph N/A   Mostly Cloudy
8:35 PM 73.4 °F - 60.8 °F 65% 30.00 in 10.0 mi South 9.2 mph - N/A   Scattered Clouds
8:55 PM 73.4 °F - 60.8 °F 65% 30.00 in 10.0 mi SSE 11.5 mph - N/A   Clear
9:15 PM 73.4 °F - 60.8 °F 65% 30.01 in 10.0 mi SSE 15.0 mph 21.9 mph N/A   Scattered Clouds
9:35 PM 73.4 °F - 60.8 °F 65% 30.02 in 10.0 mi South 11.5 mph - N/A   Mostly Cloudy
10:15 PM 75.2 °F - 57.2 °F 53% 30.03 in 10.0 mi SSE 17.3 mph 25.3 mph N/A   Mostly Cloudy
10:35 PM 73.4 °F - 57.2 °F 57% 30.03 in 10.0 mi South 15.0 mph 21.9 mph N/A   Scattered Clouds
10:55 PM 73.4 °F - 57.2 °F 57% 30.03 in 10.0 mi South 12.7 mph 19.6 mph N/A   Clear
11:15 PM 73.4 °F - 57.2 °F 57% 30.03 in 10.0 mi South 13.8 mph 21.9 mph N/A   Clear
11:35 PM 73.4 °F - 55.4 °F 53% 30.03 in 10.0 mi South 12.7 mph 23.0 mph N/A   Clear
11:55 PM 73.4 °F - 55.4 °F 53% 30.03 in 10.0 mi South 13.8 mph 23.0 mph N/A   Clear